Overview Statistics Trail Chart Weather Telemetry Raw packets
 

This is the latest recevied weather packets stored in our database for station/object K7KAR-2. If no packets are shown the sender has not sent any weather packets the latest 10 day(s).

<< 100 101 102 103 104 105 106 >>
Time Temp. Humidity Pressure Rain* Wind** Luminosity Snow
1787861589 35.56° C 17% 1015.3 hPa 0 mm - 572 W/m² -
1787861288 34.44° C 18% 1015.3 hPa 0 mm - 613 W/m² -
1787860982 34.44° C 18% 1015.1 hPa 0 mm - 639 W/m² -
1787860682 34.44° C 18% 1015.5 hPa 0 mm - 604 W/m² -
1787860377 35° C 17% 1015.4 hPa 0 mm - 495 W/m² -
1787860071 35° C 19% 1015.4 hPa 0 mm - 534 W/m² -
1787859767 35° C 19% 1015.5 hPa 0 mm - 520 W/m² -
1787859467 33.89° C 19% 1015.6 hPa 0 mm - 509 W/m² -
1787859161 34.44° C 19% 1015.6 hPa 0 mm - 588 W/m² -
1787858858 34.44° C 19% 1015.6 hPa 0 mm - 588 W/m² -
1787858553 34.44° C 19% 1015.6 hPa 0 mm - 642 W/m² -
1787858252 33.89° C 19% 1015.7 hPa 0 mm - 629 W/m² -
1787857953 33.89° C 19% 1015.9 hPa 0 mm - 500 W/m² -
1787857644 33.89° C 20% 1015.6 hPa 0 mm - 674 W/m² -
1787857340 33.89° C 20% 1016 hPa 0 mm - 785 W/m² -
1787857038 33.89° C 20% 1016.1 hPa 0 mm - 722 W/m² -
1787856732 34.44° C 19% 1016.4 hPa 0 mm - 936 W/m² -
1787856426 33.33° C 21% 1016.3 hPa 0 mm - 870 W/m² -
1787856122 33.89° C 20% 1016.4 hPa 0 mm - 718 W/m² -
1787855811 33.33° C 20% 1016.3 hPa 0 mm - 738 W/m² -
1787855507 33.33° C 19% 1016.4 hPa 0 mm - 703 W/m² -
1787855202 32.22° C 20% 1016.7 hPa 0 mm - 633 W/m² -
1787854897 32.78° C 19% 1016.7 hPa 0 mm - 668 W/m² -
1787854596 32.78° C 19% 1016.9 hPa 0 mm - 721 W/m² -
1787854291 32.22° C 21% 1016.8 hPa 0 mm - 772 W/m² -

* Rain latest hour (hover to see other rain measurements)
** Current wind speed in m/s (hover to see current wind gust speed)